| time (UTC) | temp F | wind direction | speed MPH | gust MPH | rain 1hr in | rain 24hr in | rain mn in | humidity % | barometer mb |
| 20260510133047 | 39 | 327 | 5.0 | 9.0 | 0.00 | 0.00 | 0.00 | 72 | 1015.0 |
| 20260510131548 | 39 | 333 | 8.0 | 15.0 | 0.00 | 0.00 | 0.00 | 77 | 1015.0 |
| 20260510130046 | 38 | 309 | 7.0 | 15.0 | 0.00 | 0.00 | 0.00 | 76 | 1014.7 |
| 20260510124605 | 37 | 310 | 5.0 | 11.0 | 0.00 | 0.00 | 0.00 | 78 | 1014.6 |
| 20260510123046 | 35 | 317 | 4.0 | 8.0 | 0.00 | 0.00 | 0.00 | 81 | 1014.5 |
| 20260510121545 | 34 | 316 | 2.0 | 5.0 | 0.00 | 0.00 | 0.00 | 80 | 1014.2 |
| 20260510120044 | 34 | 273 | 2.0 | 6.0 | 0.00 | 0.00 | 0.00 | 83 | 1014.2 |
| 20260510114542 | 33 | 285 | 2.0 | 6.0 | 0.00 | 0.00 | 0.00 | 84 | 1014.1 |
| 20260510113059 | 32 | 281 | 3.0 | 7.0 | 0.00 | 0.00 | 0.00 | 87 | 1013.7 |
| 20260510111604 | 32 | 267 | 2.0 | 4.0 | 0.00 | 0.00 | 0.00 | 87 | 1013.5 |
| 20260510110047 | 31 | 240 | 3.0 | 4.0 | 0.00 | 0.00 | 0.00 | 87 | 1013.5 |
| 20260510104600 | 30 | 0 | 0.0 | 0.0 | 0.00 | 0.00 | 0.00 | 87 | 1013.3 |
| 20260510103050 | 30 | 0 | 0.0 | 3.0 | 0.00 | 0.00 | 0.00 | 87 | 1013.1 |
| 20260510101548 | 30 | 0 | 0.0 | 3.0 | 0.00 | 0.00 | 0.00 | 88 | 1012.9 |
| 20260510100047 | 29 | 0 | 0.0 | 0.0 | 0.00 | 0.00 | 0.00 | 88 | 1012.6 |
| 20260510094548 | 28 | 0 | 0.0 | 0.0 | 0.00 | 0.00 | 0.00 | 87 | 1012.6 |
| 20260510093044 | 28 | 0 | 0.0 | 0.0 | 0.00 | 0.00 | 0.00 | 85 | 1012.5 |
| 20260510091552 | 29 | 0 | 0.0 | 0.0 | 0.00 | 0.00 | 0.00 | 85 | 1012.4 |
| 20260510090047 | 29 | 0 | 0.0 | 0.0 | 0.00 | 0.00 | 0.00 | 84 | 1012.3 |
| 20260510084555 | 29 | 0 | 0.0 | 0.0 | 0.00 | 0.00 | 0.00 | 86 | 1012.1 |
| 20260510083046 | 30 | 0 | 0.0 | 1.0 | 0.00 | 0.00 | 0.00 | 86 | 1011.9 |
| 20260510081546 | 29 | 0 | 0.0 | 1.0 | 0.00 | 0.00 | 0.00 | 84 | 1011.9 |
| 20260510080042 | 30 | 0 | 0.0 | 0.0 | 0.00 | 0.00 | 0.00 | 82 | 1011.8 |
| 20260510074545 | 30 | 0 | 0.0 | 0.0 | 0.00 | 0.00 | 0.00 | 81 | 1011.8 |
| 20260510073048 | 31 | 0 | 0.0 | 0.0 | 0.00 | 0.00 | 0.00 | 80 | 1011.8 |
| 20260510071546 | 31 | 0 | 0.0 | 0.0 | 0.00 | 0.00 | 0.00 | 80 | 1011.8 |
| 20260510070049 | 31 | 0 | 0.0 | 0.0 | 0.00 | 0.00 | 0.00 | 79 | 1011.7 |
| 20260510064557 | 32 | 0 | 0.0 | 0.0 | 0.00 | 0.00 | 0.00 | 77 | 1011.8 |
| 20260510063048 | 32 | 0 | 0.0 | 0.0 | 0.00 | 0.00 | 0.00 | 76 | 1011.8 |
| 20260510061551 | 33 | 0 | 0.0 | 0.0 | 0.00 | 0.00 | 0.00 | 76 | 1011.5 |
| 20260510060046 | 34 | 0 | 0.0 | 0.0 | 0.00 | 0.00 | 0.00 | 73 | 1011.7 |
| 20260510054544 | 34 | 0 | 0.0 | 0.0 | 0.00 | 0.00 | 0.00 | 75 | 1011.7 |
| 20260510053044 | 34 | 0 | 0.0 | 0.0 | 0.00 | 0.00 | 0.00 | 73 | 1011.5 |
| 20260510051547 | 34 | 0 | 0.0 | 0.0 | 0.00 | 0.00 | 0.00 | 75 | 1011.4 |
| 20260510050049 | 33 | 0 | 0.0 | 3.0 | 0.00 | 0.00 | 0.00 | 76 | 1011.3 |
| 20260510044553 | 32 | 0 | 0.0 | 3.0 | 0.00 | 0.00 | 0.00 | 78 | 1011.2 |
| 20260510043045 | 32 | 0 | 0.0 | 0.0 | 0.00 | 0.00 | 0.00 | 77 | 1011.2 |
| 20260510041540 | 32 | 0 | 0.0 | 0.0 | 0.00 | 0.00 | 0.00 | 76 | 1011.0 |
| 20260510040042 | 33 | 0 | 0.0 | 0.0 | 0.00 | 0.00 | 0.00 | 73 | 1011.0 |
| 20260510034556 | 34 | 0 | 0.0 | 0.0 | 0.00 | 0.00 | 0.00 | 71 | 1010.7 |
| 20260510033048 | 34 | 0 | 0.0 | 0.0 | 0.00 | 0.00 | 0.00 | 71 | 1010.6 |
| 20260510031550 | 35 | 0 | 0.0 | 0.0 | 0.00 | 0.00 | 0.00 | 68 | 1010.6 |
| 20260510030053 | 36 | 0 | 0.0 | 0.0 | 0.00 | 0.00 | 0.00 | 65 | 1010.6 |
| 20260510024548 | 37 | 0 | 0.0 | 0.0 | 0.00 | 0.00 | 0.00 | 62 | 1010.5 |
| 20260510023045 | 38 | 0 | 0.0 | 0.0 | 0.00 | 0.00 | 0.00 | 61 | 1010.4 |
| 20260510021545 | 40 | 0 | 0.0 | 0.0 | 0.00 | 0.00 | 0.00 | 56 | 1010.3 |
| 20260510020045 | 41 | 0 | 0.0 | 4.0 | 0.00 | 0.00 | 0.00 | 54 | 1010.1 |
| 20260510014543 | 42 | 297 | 2.0 | 9.0 | 0.00 | 0.00 | 0.00 | 54 | 1009.8 |
| 20260510013050 | 43 | 0 | 4.0 | 10.0 | 0.00 | 0.00 | 0.00 | 53 | 1009.5 |
| 20260510011546 | 43 | 311 | 5.0 | 12.0 | 0.00 | 0.00 | 0.00 | 51 | 1009.3 |
| 20260510010046 | 43 | 329 | 4.0 | 11.0 | 0.00 | 0.00 | 0.00 | 50 | 1009.1 |
| 20260510004545 | 43 | 327 | 2.0 | 7.0 | 0.00 | 0.00 | 0.00 | 49 | 1008.8 |
| 20260510003053 | 43 | 335 | 2.0 | 9.0 | 0.00 | 0.00 | 0.00 | 49 | 1008.8 |
| 20260510001549 | 44 | 322 | 3.0 | 13.0 | 0.00 | 0.00 | 0.00 | 50 | 1008.6 |
| 20260510000047 | 44 | 317 | 6.0 | 13.0 | 0.00 | 0.00 | 0.00 | 50 | 1008.6 |
| 20260509234559 | 44 | 52 | 3.0 | 11.0 | 0.00 | 0.00 | 0.00 | 46 | 1008.4 |
| 20260509233053 | 44 | 332 | 3.0 | 14.0 | 0.00 | 0.00 | 0.00 | 50 | 1008.2 |
| 20260509231603 | 44 | 350 | 6.0 | 16.0 | 0.00 | 0.00 | 0.00 | 47 | 1008.1 |
| 20260509230059 | 45 | 66 | 5.0 | 16.0 | 0.00 | 0.00 | 0.00 | 45 | 1008.1 |
| 20260509224544 | 46 | 309 | 8.0 | 18.0 | 0.00 | 0.00 | 0.00 | 43 | 1007.8 |
| 20260509223045 | 46 | 50 | 5.0 | 16.0 | 0.00 | 0.00 | 0.00 | 45 | 1007.8 |
| 20260509221543 | 46 | 316 | 6.0 | 17.0 | 0.00 | 0.00 | 0.00 | 43 | 1007.8 |
| 20260509220044 | 46 | 300 | 12.0 | 29.0 | 0.00 | 0.00 | 0.00 | 49 | 1007.3 |
| 20260509214544 | 46 | 343 | 10.0 | 19.0 | 0.00 | 0.00 | 0.00 | 45 | 1007.4 |
| 20260509213046 | 46 | 323 | 7.0 | 19.0 | 0.00 | 0.00 | 0.00 | 44 | 1007.2 |
| 20260509211548 | 46 | 303 | 13.0 | 21.0 | 0.00 | 0.00 | 0.00 | 45 | 1007.0 |
| 20260509204546 | 49 | 9 | 11.0 | 24.0 | 0.00 | 0.00 | 0.00 | 44 | 1006.6 |
| 20260509203047 | 49 | 323 | 9.0 | 23.0 | 0.00 | 0.00 | 0.00 | 45 | 1006.4 |
| 20260509201556 | 47 | 349 | 4.0 | 19.0 | 0.00 | 0.00 | 0.00 | 47 | 1006.2 |
| 20260509200050 | 48 | 290 | 9.0 | 21.0 | 0.00 | 0.00 | 0.00 | 47 | 1005.8 |
| 20260509194547 | 49 | 69 | 8.0 | 15.0 | 0.00 | 0.00 | 0.00 | 44 | 1005.6 |
| 20260509193052 | 50 | 338 | 7.0 | 20.0 | 0.00 | 0.00 | 0.00 | 41 | 1005.0 |
| 20260509191546 | 50 | 332 | 9.0 | 21.0 | 0.00 | 0.00 | 0.00 | 43 | 1004.7 |
| 20260509190049 | 49 | 360 | 11.0 | 22.0 | 0.00 | 0.00 | 0.00 | 45 | 1004.6 |
| 20260509184555 | 49 | 309 | 6.0 | 19.0 | 0.00 | 0.00 | 0.00 | 45 | 1004.4 |
| 20260509183047 | 50 | 314 | 10.0 | 26.0 | 0.00 | 0.00 | 0.00 | 44 | 1004.2 |
| 20260509181549 | 49 | 304 | 9.0 | 25.0 | 0.00 | 0.00 | 0.00 | 44 | 1004.0 |
| 20260509180052 | 49 | 327 | 9.0 | 18.0 | 0.00 | 0.00 | 0.00 | 43 | 1003.9 |
| 20260509174545 | 48 | 330 | 8.0 | 19.0 | 0.00 | 0.00 | 0.00 | 46 | 1003.8 |
| 20260509173044 | 49 | 337 | 11.0 | 23.0 | 0.00 | 0.00 | 0.00 | 43 | 1003.5 |
| 20260509171549 | 49 | 304 | 13.0 | 23.0 | 0.00 | 0.00 | 0.00 | 47 | 1003.1 |
| 20260509170059 | 50 | 305 | 13.0 | 20.0 | 0.00 | 0.00 | 0.00 | 44 | 1003.0 |
| 20260509164549 | 50 | 296 | 15.0 | 24.0 | 0.00 | 0.00 | 0.00 | 47 | 1002.7 |
| 20260509163056 | 50 | 25 | 15.0 | 23.0 | 0.00 | 0.00 | 0.00 | 43 | 1002.5 |
| 20260509161554 | 50 | 321 | 13.0 | 35.0 | 0.00 | 0.00 | 0.00 | 43 | 1002.2 |
| 20260509160040 | 51 | 299 | 15.0 | 27.0 | 0.00 | 0.00 | 0.00 | 45 | 1001.8 |
| 20260509154548 | 50 | 304 | 8.0 | 20.0 | 0.00 | 0.00 | 0.00 | 40 | 1001.6 |
| 20260509153046 | 49 | 311 | 11.0 | 25.0 | 0.00 | 0.00 | 0.00 | 40 | 1001.4 |
| 20260509151547 | 49 | 344 | 7.0 | 15.0 | 0.00 | 0.00 | 0.00 | 42 | 1001.2 |
| 20260509150050 | 47 | 319 | 7.0 | 14.0 | 0.00 | 0.00 | 0.00 | 45 | 1001.1 |
| 20260509144553 | 45 | 300 | 3.0 | 13.0 | 0.00 | 0.00 | 0.00 | 47 | 1000.8 |
| 20260509143054 | 44 | 300 | 7.0 | 17.0 | 0.00 | 0.00 | 0.00 | 47 | 1000.7 |
| 20260509141546 | 44 | 321 | 7.0 | 16.0 | 0.00 | 0.00 | 0.00 | 47 | 1000.5 |
| 20260509140044 | 45 | 306 | 8.0 | 15.0 | 0.00 | 0.00 | 0.00 | 48 | 1000.4 |
| 20260509134542 | 45 | 278 | 6.0 | 15.0 | 0.00 | 0.00 | 0.00 | 46 | 1000.3 |